This is the latest recevied weather packets stored in our database for station/object KD2RHT-13. If no packets are shown the sender has not sent any weather packets the latest 10 day(s).
| Time | Temp. | Humidity | Pressure | Rain* | Wind** | Luminosity | Snow |
|---|---|---|---|---|---|---|---|
| 1778115855 | 7.22° C | 96% | 1013.1 hPa | 0 mm | - | 0 W/m² | - |
| 1778115552 | 7.22° C | 96% | 1013.1 hPa | 0 mm | - | 0 W/m² | - |
| 1778115249 | 7.22° C | 96% | 1013.1 hPa | 0 mm | - | 0 W/m² | - |
| 1778114946 | 7.22° C | 96% | 1013.1 hPa | 0 mm | - | 0 W/m² | - |
| 1778114643 | 7.22° C | 96% | 1013.1 hPa | 0 mm | - | 0 W/m² | - |
| 1778114340 | 7.22° C | 96% | 1013.1 hPa | 0 mm | - | 0 W/m² | - |
| 1778114035 | 7.22° C | 96% | 1013.1 hPa | 0 mm | - | 0 W/m² | - |
| 1778113731 | 7.22° C | 96% | 1012.7 hPa | 0 mm | - | 0 W/m² | - |
| 1778113427 | 7.22° C | 95% | 1013.1 hPa | 0 mm | - | 0 W/m² | - |
| 1778113124 | 7.78° C | 95% | 1012.7 hPa | 0 mm | - | 0 W/m² | - |
| 1778112821 | 7.78° C | 95% | 1012.7 hPa | 0 mm | - | 0 W/m² | - |
| 1778112517 | 7.78° C | 95% | 1012.7 hPa | 0 mm | - | 0 W/m² | - |
| 1778112213 | 7.78° C | 95% | 1012.4 hPa | 0 mm | - | 1 W/m² | - |
| 1778111910 | 7.78° C | 95% | 1012.4 hPa | 0 mm | - | 2 W/m² | - |
| 1778111606 | 7.78° C | 95% | 1012.4 hPa | 0 mm | - | 2 W/m² | - |
| 1778111302 | 7.78° C | 94% | 1012.4 hPa | 0 mm | - | 4 W/m² | - |
| 1778111001 | 7.78° C | 94% | 1012.4 hPa | 0 mm | - | 7 W/m² | - |
| 1778110698 | 7.78° C | 94% | 1012.4 hPa | 0 mm | - | 7 W/m² | - |
| 1778110393 | 7.78° C | 94% | 1012.1 hPa | 0 mm | - | 10 W/m² | - |
| 1778110090 | 8.33° C | 94% | 1011.7 hPa | 0 mm | - | 12 W/m² | - |
| 1778109786 | 8.33° C | 94% | 1012.1 hPa | 0 mm | - | 16 W/m² | - |
| 1778109483 | 8.33° C | 93% | 1012.1 hPa | 0 mm | - | 22 W/m² | - |
| 1778109181 | 8.33° C | 94% | 1012.1 hPa | 0 mm | - | 16 W/m² | - |
| 1778108878 | 8.33° C | 93% | 1011.4 hPa | 0 mm | - | 27 W/m² | - |
| 1778108575 | 8.33° C | 92% | 1011.4 hPa | 0 mm | - | 19 W/m² | - |
* Rain latest hour (hover to see other rain measurements)
** Current wind speed in m/s (hover to see current wind gust speed)